Location: Rumah Dana
(3.1167°N, 113.0167°E)
Time: 14:12:32
(UTC+00:00)

SME Rocket - Pass Details

Date: 03 August 2024
Orbit: 550 x 2642 km, 99.9° (Epoch: 10 September)

Event Time Altitude Azimuth Distance (km) Brightness Sun altitude
Rises 21:05:57 0° 11° (NNE) 3,713 7.5 -20.0°
Reaches altitude 10° 21:08:47 10° 10° (N) 2,506 6.5 -19.3°
Maximum altitude 21:13:59 79° 285° (WNW) 689 3.1 -18.1°
Enters shadow 21:16:49 19° 199° (SSW) 1,439 4.6 -17.4°
